Theta_e
315 315 311 306 294 290 285 288 291 291 291 293 295 295 293 292 294 291 302 302 304 306 311 323 334 335 337 339 339 341 343 344 345 346 346 346 346 346 346 347 348 346 344 346 346 345 345 346 346
313 313 308 297 289 285 285 290 289 291 294 294 294 292 292 290 295 296 297 301 301 302 305 319 328 329 332 334 336 337 337 339 341 341 342 343 344 345 345 345 345 345 346 346 346 345 345 346 346
312 309 302 291 286 285 286 289 291 292 294 292 292 293 290 290 294 295 296 299 298 298 302 313 321 321 323 324 326 329 331 333 335 337 337 337 338 340 342 343 343 344 344 345 345 345 345 346 347
306 304 296 289 287 289 290 290 293 293 292 295 292 289 291 294 294 295 297 296 295 296 299 309 315 317 318 319 320 322 324 325 326 325 327 331 334 336 336 338 340 341 343 344 345 345 346 345 347
300 296 290 286 287 290 290 291 293 293 291 291 292 288 289 293 294 294 293 294 293 294 297 300 310 312 313 315 316 317 318 320 319 319 320 322 324 326 330 332 334 336 339 341 342 342 345 345 345
297 294 288 285 286 289 290 292 292 290 292 291 290 288 289 293 292 292 292 291 292 293 296 297 303 306 308 310 311 312 313 315 314 314 314 315 315 318 323 324 328 331 333 335 338 340 343 343 343
295 291 286 285 287 288 292 293 292 291 291 291 292 287 288 290 293 292 291 291 292 292 294 293 295 298 302 304 306 307 309 310 310 310 309 309 309 314 315 312 314 319 324 329 333 334 337 340 341
295 293 287 285 287 288 292 291 291 291 291 292 291 287 285 290 292 291 290 290 290 291 291 292 291 293 294 294 302 303 304 305 305 305 305 304 304 308 308 307 310 313 314 315 319 329 333 335 337
297 291 287 287 288 291 292 291 290 290 289 287 289 289 290 291 290 288 287 288 288 291 289 290 290 290 291 293 295 297 300 300 301 300 302 299 297 300 301 303 306 308 309 310 311 314 321 329 330
293 289 290 291 291 291 292 292 291 290 287 286 286 288 289 289 287 286 285 286 285 286 287 288 288 289 290 293 291 290 292 292 293 294 296 296 295 298 299 300 301 303 304 306 308 314 315 320 323
291 288 292 293 294 293 292 290 291 289 287 288 286 287 287 286 285 285 285 285 285 284 286 287 287 287 288 288 289 289 289 290 291 291 293 295 294 294 295 294 294 297 300 298 302 307 304 304 307
292 293 293 295 295 293 291 291 290 290 291 290 289 289 286 285 284 284 284 285 285 285 285 286 286 287 287 287 287 287 288 289 289 290 292 292 291 291 291 290 291 293 297 296 301 302 301 300 302
292 292 293 294 294 292 292 291 291 289 288 288 288 287 286 285 284 284 285 285 285 284 284 285 286 286 287 287 286 286 286 287 288 289 290 291 289 288 289 289 290 291 295 296 298 299 299 298 299
291 292 293 294 293 292 291 289 290 289 286 286 287 286 285 285 284 283 283 283 283 285 284 285 286 286 286 286 285 285 286 287 287 288 288 289 288 286 287 287 288 290 294 296 296 296 297 297 297
291 290 290 290 291 291 291 288 289 288 286 285 285 284 285 284 284 283 283 283 283 284 285 285 287 286 285 285 285 285 286 287 286 286 286 286 287 285 285 286 286 289 291 293 294 294 296 295 296
288 288 286 289 291 290 289 286 291 288 286 284 283 283 284 285 285 283 283 283 283 283 284 285 288 286 285 285 285 285 285 284 284 284 284 284 285 284 283 282 284 285 285 287 291 293 294 292 293
286 284 283 287 291 289 288 286 290 286 285 285 284 284 285 285 283 282 282 282 282 283 283 284 285 285 285 285 284 283 283 283 283 282 282 282 283 283 282 282 282 282 282 283 285 288 291 292 293
284 282 283 284 287 287 286 287 291 287 285 286 285 284 284 285 284 283 282 282 282 282 283 283 284 284 284 284 283 282 282 281 281 281 281 282 282 282 281 281 280 281 281 280 282 283 286 289 293
287 283 282 283 287 286 286 287 291 291 285 285 284 283 284 285 284 283 282 281 281 281 282 282 282 283 283 281 280 280 279 279 279 280 281 281 281 281 280 280 280 280 279 279 281 282 285 287 290
284 282 282 285 285 286 285 285 288 291 288 287 287 284 284 285 280 282 281 280 281 281 282 282 282 282 282 281 281 280 279 279 279 280 280 280 280 280 280 279 279 279 279 280 279 282 282 283 287
283 282 282 283 283 283 281 280 283 287 287 287 287 288 286 285 282 281 281 280 280 280 281 282 282 282 282 282 281 280 279 278 277 277 277 279 279 279 279 279 278 278 279 278 279 279 278 278 283
282 284 283 282 280 278 282 279 281 287 287 285 286 284 285 284 284 282 281 280 279 280 280 282 282 282 283 281 279 277 276 276 276 276 277 278 278 278 279 279 278 278 278 277 277 279 278 279 279
284 283 281 280 278 275 277 275 279 280 283 288 288 285 285 283 283 282 282 282 281 281 280 280 280 281 281 281 279 277 276 276 276 275 275 275 276 277 278 279 278 277 277 277 276 276 276 277 278
285 282 280 277 276 272 279 278 277 279 283 284 284 283 283 282 281 282 282 281 281 280 280 279 279 280 280 279 278 276 275 274 275 275 274 275 275 276 277 278 277 277 277 276 275 276 276 278 278
282 281 277 274 272 276 276 274 283 284 286 286 286 283 281 280 279 280 279 280 280 279 279 279 279 279 279 278 277 276 275 274 274 274 273 274 274 274 276 276 276 276 276 276 275 276 275 274 274
281 283 278 270 270 278 275 275 282 284 286 283 280 280 281 278 279 280 280 280 279 279 279 278 279 278 277 277 276 275 275 274 273 273 273 273 273 274 275 276 276 275 275 275 275 274 274 275 277
281 279 281 277 263 268 278 279 282 284 282 281 279 280 280 277 278 279 279 280 279 278 278 278 277 277 276 276 275 274 273 273 272 272 273 273 273 275 275 275 274 274 275 274 274 274 273 273 273
280 282 277 276 270 266 276 277 281 285 285 284 279 278 279 277 277 278 279 279 278 278 278 277 276 276 275 275 274 274 273 272 272 272 272 272 273 273 274 274 274 273 274 274 274 273 274 273 274
277 277 277 279 276 271 269 279 282 285 286 285 282 280 279 278 278 278 279 279 278 277 277 276 275 275 274 274 273 272 272 272 271 271 271 272 272 273 273 273 273 273 272 273 272 272 272 272 272
279 280 281 278 275 271 272 280 284 285 285 284 281 281 278 278 278 278 279 278 277 276 275 274 274 273 273 272 272 271 271 271 270 270 271 272 271 272 272 272 271 271 271 271 270 270 271 271 271
Wind_Speed
2 4 3 5 5 7 1 3 1 2 3 4 2 7 9 4 3 4 5 6 8 8 10 9 18 19 19 17 17 17 17 16 15 13 11 12 12 11 10 11 9 7 8 11 13 13 13 11 11
2 2 5 3 7 4 4 3 4 3 6 7 7 3 6 3 2 3 4 9 8 8 9 9 17 20 20 20 20 19 19 18 18 17 17 16 14 13 12 13 13 13 13 13 13 14 15 12 11
3 4 4 6 4 3 4 3 5 3 6 1 5 5 3 2 1 3 2 6 8 7 8 11 19 21 21 21 21 21 21 20 20 20 18 19 18 18 16 15 14 13 14 15 15 14 14 14 13
2 5 5 6 2 3 2 4 6 6 1 6 4 8 3 0 1 4 4 6 5 6 7 13 20 21 22 22 23 22 22 22 22 22 20 20 20 20 19 19 18 17 15 15 17 16 13 13 15
5 4 5 4 1 1 3 1 8 5 5 2 2 6 5 2 5 6 6 5 5 6 7 8 20 20 22 22 23 23 22 21 21 22 23 22 22 21 20 21 20 19 19 18 18 17 15 14 14
5 4 5 2 3 2 2 3 6 3 4 5 5 8 6 5 5 4 5 6 5 6 6 6 14 19 21 22 22 21 21 21 22 23 23 22 22 22 22 23 22 22 20 20 21 20 16 15 14
7 5 5 5 4 2 6 5 7 6 6 5 10 7 2 4 6 6 5 5 5 6 6 6 6 11 15 20 21 21 22 21 21 22 22 22 22 21 21 22 22 22 23 24 21 21 22 19 17
6 5 5 4 6 5 6 3 3 3 3 3 2 6 6 8 9 7 5 5 5 5 4 5 5 6 6 6 20 20 20 21 21 21 22 21 19 20 22 23 23 23 23 24 23 23 20 21 20
3 5 2 7 7 6 6 5 1 1 6 1 2 4 4 11 9 6 4 3 3 4 6 6 6 6 6 7 10 13 17 18 18 16 19 13 8 9 12 18 22 23 24 24 24 24 25 21 17
5 4 6 5 5 4 4 4 9 5 3 3 1 2 5 8 6 7 5 5 3 5 5 5 7 7 7 7 7 7 7 5 6 7 7 7 7 7 11 12 19 20 21 23 25 21 22 18 9
1 3 2 3 4 4 4 4 6 7 5 9 11 14 8 5 6 8 6 6 6 3 3 6 6 6 7 6 5 3 4 4 5 7 7 6 6 7 6 6 7 7 12 7 12 10 8 12 10
2 1 2 1 2 2 2 6 4 9 4 2 8 15 8 9 9 8 8 7 7 5 4 5 6 6 6 4 4 5 5 5 5 6 6 4 4 5 6 6 8 7 6 8 7 6 9 10 12
2 1 2 3 4 4 4 4 8 9 2 4 11 11 12 10 9 6 7 6 6 6 4 5 5 6 6 6 5 4 4 4 5 6 6 6 6 6 6 7 7 7 8 7 8 8 8 9 11
0 2 4 5 4 3 4 3 3 1 7 8 13 13 9 10 10 6 7 6 6 7 6 3 4 4 5 3 3 3 3 4 4 5 5 6 4 4 5 6 7 7 8 9 8 9 9 8 9
1 5 6 4 3 4 5 6 12 4 7 9 10 9 9 11 11 12 10 8 8 5 6 4 4 4 4 3 3 3 3 4 4 4 5 6 5 6 6 6 6 7 9 12 10 11 9 9 8
4 4 5 2 6 2 4 11 8 8 12 12 11 9 12 14 11 8 8 8 7 7 6 5 3 3 1 1 2 2 3 3 3 4 4 6 5 5 5 5 5 7 7 8 8 8 8 10 10
6 4 3 9 7 3 6 11 6 6 9 10 13 14 14 11 9 8 9 9 9 9 8 6 5 5 4 3 2 3 4 3 4 4 4 5 4 5 4 4 5 7 6 6 8 9 9 10 10
5 4 5 7 3 4 5 18 16 8 11 18 15 14 15 15 18 13 11 9 8 8 7 6 5 5 4 2 3 3 3 3 4 4 4 5 4 6 6 7 8 8 7 7 7 11 10 12 12
3 4 8 6 5 4 9 14 22 9 11 16 14 15 17 20 10 12 11 8 7 6 7 7 6 5 4 3 3 3 3 3 3 4 5 5 5 6 7 6 7 8 8 10 11 12 13 9 10
3 4 9 8 1 6 11 16 15 19 12 15 16 17 20 16 13 16 13 9 9 9 9 7 6 5 4 2 3 3 3 4 4 4 5 5 5 6 8 7 8 8 8 9 10 11 10 10 10
5 6 5 7 5 5 8 9 8 8 6 7 10 12 16 20 19 16 15 13 9 9 9 7 6 5 4 5 3 2 3 3 2 4 4 4 5 6 7 9 8 9 8 8 9 9 12 13 10
5 5 3 4 5 5 4 14 4 9 12 7 9 12 15 17 16 17 19 14 10 10 8 8 7 4 4 5 2 2 3 4 4 4 4 5 6 7 8 8 9 11 9 8 9 9 10 11 13
7 2 2 1 2 3 5 6 8 3 9 21 10 13 13 16 19 21 20 16 10 8 8 7 7 4 4 4 4 3 5 4 5 3 6 6 6 7 8 9 10 10 8 9 10 12 12 10 13
4 2 4 4 2 2 7 9 5 7 11 9 6 6 9 11 14 13 14 12 9 7 7 6 7 4 3 3 4 4 6 7 6 8 8 7 7 7 9 10 10 10 10 11 11 12 15 11 13
3 6 5 6 3 11 4 3 13 8 14 11 10 7 9 9 12 13 17 15 10 9 9 7 7 5 4 4 4 5 6 7 7 9 8 10 9 8 10 10 11 10 12 13 13 13 14 15 15
7 9 8 9 5 15 1 12 10 13 11 7 7 8 7 9 12 15 16 14 11 9 8 7 7 5 4 3 5 5 6 4 5 7 8 9 10 10 12 12 12 14 14 13 14 13 12 15 13
5 6 2 4 3 4 7 10 8 10 12 9 10 7 10 10 12 14 13 12 9 8 8 9 7 4 3 4 5 6 6 6 7 10 10 9 11 11 14 15 16 15 15 15 15 13 15 14 15
4 4 5 2 4 8 13 17 15 14 11 11 8 10 9 8 10 11 13 12 8 7 7 7 5 3 2 4 5 5 6 7 8 9 12 12 13 15 16 16 16 16 16 16 16 14 15 16 14
4 4 1 2 6 7 6 16 6 8 10 11 10 11 10 12 12 12 12 10 9 7 7 6 4 1 3 4 5 6 7 8 8 10 11 12 14 15 16 17 17 17 17 16 16 17 18 19 17
3 8 11 8 8 3 3 31 3 6 8 8 8 10 8 10 12 12 13 12 9 8 7 6 4 3 3 4 5 6 8 8 10 11 12 13 15 15 16 17 18 18 18 17 18 19 17 18 18
Wind_Direction
98 113 81 43 58 66 138 238 170 166 90 340 43 110 124 64 84 191 186 357 341 344 341 350 31 35 36 34 35 34 34 30 27 16 357 336 324 312 305 303 313 294 314 314 316 314 309 308 307
100 117 42 79 83 67 262 259 181 187 151 164 73 71 48 98 33 87 53 339 353 342 342 8 36 40 39 39 38 39 33 30 27 24 20 9 355 342 331 318 320 321 317 307 308 311 310 304 301
123 54 76 85 95 149 184 212 132 85 147 170 98 58 95 123 177 117 355 350 357 0 354 27 42 42 41 41 40 39 35 32 30 26 19 15 9 1 355 342 329 320 313 309 304 305 306 306 301
62 17 40 81 130 221 194 173 130 116 358 60 115 78 66 122 160 121 45 19 15 11 6 32 43 44 40 39 38 36 35 35 31 26 21 15 13 10 4 358 350 334 320 311 304 304 300 297 302
40 50 57 82 256 237 235 163 155 152 130 101 152 179 145 72 107 87 68 51 53 27 19 28 44 43 42 40 38 35 32 33 30 26 21 17 15 11 8 3 357 351 339 326 311 302 304 302 297
47 93 67 192 253 233 259 152 132 115 146 159 89 133 188 135 135 110 80 63 51 50 24 38 39 43 41 39 38 36 35 32 29 24 21 18 15 11 11 8 2 354 344 337 329 315 302 296 291
112 88 173 173 202 237 190 147 154 160 150 204 150 137 195 185 184 131 108 75 54 45 40 26 25 32 38 37 32 30 29 28 27 25 22 17 14 11 10 6 360 357 352 347 339 328 323 303 290
104 94 128 201 196 241 189 106 118 154 190 81 141 181 205 201 169 136 114 101 76 54 55 37 30 27 21 30 29 26 27 24 21 20 19 16 15 7 5 0 355 353 352 348 342 336 323 319 311
130 63 175 197 158 235 165 139 12 64 116 75 266 176 226 140 139 140 134 83 46 38 33 26 26 29 22 39 23 22 20 19 17 15 11 10 9 360 4 354 350 349 347 347 344 336 332 325 313
80 106 218 184 202 222 178 165 163 150 151 235 308 57 109 122 149 155 145 140 90 43 22 25 28 24 21 27 19 15 9 10 5 1 357 3 5 357 356 349 348 344 342 341 341 339 341 343 326
147 168 215 238 229 199 182 154 163 139 220 206 195 176 165 145 158 162 162 146 138 132 48 30 25 26 30 20 13 10 6 2 353 355 354 351 356 351 355 346 344 335 335 333 328 342 341 330 330
25 6 210 236 235 171 227 114 223 198 202 312 188 165 156 166 177 173 161 162 151 116 70 46 39 33 26 25 19 11 8 359 349 346 342 349 351 355 354 345 335 327 322 321 320 325 323 325 319
101 331 293 276 280 250 111 231 234 238 203 113 135 154 173 177 180 177 161 161 143 121 97 53 52 33 22 26 14 4 353 346 343 344 344 357 357 352 343 339 331 323 321 316 317 319 311 315 316
127 254 252 238 244 250 201 264 339 238 132 138 158 176 179 178 177 156 173 160 152 150 129 117 95 56 42 39 6 352 353 349 344 336 331 334 345 348 350 336 325 324 318 314 311 310 302 299 301
22 328 319 207 206 253 164 278 238 144 148 164 183 185 187 197 184 186 178 164 157 154 133 125 124 64 42 23 1 352 352 351 330 315 317 325 354 352 339 337 326 321 329 318 311 309 301 301 293
30 56 4 220 151 283 138 268 260 169 162 196 200 198 201 207 198 185 172 160 162 149 152 139 136 138 34 328 318 318 313 306 298 313 302 324 343 343 350 324 324 321 319 311 306 300 292 296 296
8 270 272 312 195 136 171 267 252 165 194 214 212 206 207 209 204 187 181 175 174 169 158 163 175 187 203 223 239 259 262 278 290 285 291 297 327 337 331 323 312 317 313 317 313 304 295 298 289
243 265 252 241 209 201 217 263 265 200 200 224 218 212 211 209 204 187 183 181 174 172 162 171 185 195 211 236 261 262 249 252 257 269 274 295 316 332 329 328 328 323 323 322 315 308 301 295 292
180 201 236 243 243 236 236 248 271 251 219 237 222 209 215 215 192 186 185 181 175 181 177 179 174 207 185 213 256 280 267 272 247 268 283 313 320 325 326 315 320 316 312 310 311 300 293 293 286
185 235 260 284 299 189 264 254 264 262 246 227 226 216 216 206 189 191 186 181 183 184 193 187 192 201 204 182 213 220 246 270 263 275 288 306 299 299 309 309 302 307 301 283 293 287 297 289 288
220 197 237 236 328 248 306 261 233 273 262 246 230 223 215 207 201 193 190 191 188 192 191 191 196 211 211 214 221 251 259 265 248 249 265 259 278 279 281 283 291 294 278 280 282 297 292 290 281
245 208 237 273 23 249 22 292 246 246 288 240 227 211 213 204 202 194 191 192 187 202 187 189 194 205 227 210 223 220 235 269 239 274 279 286 266 267 270 266 272 279 271 275 291 290 282 288 285
227 132 156 103 212 6 234 268 253 26 267 268 262 228 217 204 196 193 190 188 190 183 188 193 194 214 240 232 214 239 265 247 272 285 278 266 271 259 270 273 270 275 278 286 291 284 274 266 267
127 90 69 62 78 277 227 192 217 185 211 251 255 234 211 203 204 196 187 173 183 180 178 187 200 232 248 256 266 265 275 286 300 309 304 306 298 288 270 270 279 282 280 278 282 277 270 274 274
93 67 319 326 351 244 142 213 254 235 235 228 257 260 220 195 188 185 183 180 177 178 188 187 195 227 249 268 283 285 275 280 290 297 301 295 291 282 279 280 283 280 276 275 278 273 274 274 266
174 171 169 232 232 285 250 245 264 231 261 250 240 255 236 195 193 194 189 178 179 181 181 186 189 233 261 296 292 284 284 275 278 286 282 281 283 286 289 283 279 282 281 280 277 274 272 270 265
180 193 170 83 124 335 232 271 282 266 268 264 259 240 237 199 193 192 181 177 173 176 185 183 189 222 264 292 286 285 276 275 280 282 280 285 287 292 293 292 289 285 281 282 281 272 272 270 268
175 170 83 5 261 265 263 275 252 242 250 245 243 233 240 196 196 194 187 171 170 177 180 168 172 215 275 284 272 277 282 275 277 286 288 288 290 292 292 291 289 289 286 285 280 274 273 272 266
143 218 85 157 162 204 285 271 207 213 212 229 230 227 220 202 197 194 188 170 173 170 163 164 167 200 271 266 269 274 284 287 290 290 290 290 290 292 292 293 293 293 292 289 283 276 276 270 270
281 204 174 193 228 232 129 270 233 180 189 223 228 232 222 205 194 186 182 168 171 171 162 166 157 227 249 260 273 295 292 295 296 291 292 296 294 293 294 298 298 295 292 289 283 279 276 275 270